Time,TemperatureF,DewpointF,PressureIn,WindDirection,WindDirectionDegrees,WindSpeedMPH,WindSpeedGustMPH,Humidity,HourlyPrecipIn,Conditions,Clouds,dailyrainin,SoftwareType,DateUTC
2013-01-26 00:06:00,44.1,40.0,29.63,NE,56,2.0,10.0,84,0.00,,,0.00,weatherlink.com 1.10,2013-01-26 07:06:00,
2013-01-26 00:21:00,43.4,40.0,29.62,NNW,338,3.0,7.0,87,0.00,,,0.00,weatherlink.com 1.10,2013-01-26 07:21:00,
2013-01-26 00:36:00,43.4,40.0,29.62,NW,318,2.0,6.0,87,0.00,,,0.00,weatherlink.com 1.10,2013-01-26 07:36:00,
2013-01-26 00:51:00,43.4,40.0,29.61,NNE,20,5.0,7.0,86,0.00,,,0.00,weatherlink.com 1.10,2013-01-26 07:51:00,
2013-01-26 01:06:00,43.4,39.0,29.60,NE,39,1.0,7.0,85,0.00,,,0.00,weatherlink.com 1.10,2013-01-26 08:06:00,
2013-01-26 01:21:00,43.4,40.0,29.60,NNW,340,3.0,8.0,86,0.00,,,0.00,weatherlink.com 1.10,2013-01-26 08:21:00,
2013-01-26 01:36:00,43.8,40.0,29.61,North,359,5.0,7.0,86,0.00,,,0.00,weatherlink.com 1.10,2013-01-26 08:36:00,
2013-01-26 01:51:00,44.0,40.0,29.59,NNE,15,7.0,9.0,87,0.00,,,0.00,weatherlink.com 1.10,2013-01-26 08:51:00,
2013-01-26 02:06:00,43.7,41.0,29.59,NNW,335,0.0,5.0,89,0.00,,,0.00,weatherlink.com 1.10,2013-01-26 09:06:00,
2013-01-26 02:21:00,43.3,41.0,29.59,NNE,26,3.0,6.0,90,0.00,,,0.00,weatherlink.com 1.10,2013-01-26 09:21:00,
2013-01-26 02:36:00,43.1,41.0,29.58,SSW,200,5.0,10.0,91,0.00,,,0.00,weatherlink.com 1.10,2013-01-26 09:36:00,
2013-01-26 02:51:00,43.0,41.0,29.57,NE,53,3.0,6.0,92,0.00,,,0.00,weatherlink.com 1.10,2013-01-26 09:51:00,
2013-01-26 03:06:00,43.1,41.0,29.57,SSW,195,1.0,6.0,93,0.00,,,0.00,weatherlink.com 1.10,2013-01-26 10:06:00,
2013-01-26 03:21:00,43.1,42.0,29.56,WNW,284,2.0,4.0,94,0.00,,,0.00,weatherlink.com 1.10,2013-01-26 10:21:00,
2013-01-26 03:36:00,43.2,42.0,29.55,NNE,23,3.0,7.0,94,0.00,,,0.00,weatherlink.com 1.10,2013-01-26 10:36:00,
2013-01-26 03:51:00,43.1,42.0,29.55,NW,317,2.0,5.0,95,0.00,,,0.00,weatherlink.com 1.10,2013-01-26 10:51:00,
2013-01-26 04:06:00,43.5,42.0,29.54,South,170,1.0,6.0,95,0.01,,,0.01,weatherlink.com 1.10,2013-01-26 11:06:00,
2013-01-26 04:21:00,43.3,42.0,29.53,NW,319,2.0,4.0,95,0.02,,,0.02,weatherlink.com 1.10,2013-01-26 11:21:00,
2013-01-26 04:36:00,43.1,42.0,29.52,North,9,2.0,6.0,95,0.05,,,0.05,weatherlink.com 1.10,2013-01-26 11:36:00,
2013-01-26 04:51:00,42.8,42.0,29.52,East,89,1.0,9.0,96,0.07,,,0.08,weatherlink.com 1.10,2013-01-26 11:51:00,
2013-01-26 05:06:00,42.8,42.0,29.51,ESE,113,1.0,9.0,96,0.09,,,0.10,weatherlink.com 1.10,2013-01-26 12:06:00,
2013-01-26 05:21:00,42.9,42.0,29.51,ENE,73,1.0,3.0,96,0.10,,,0.12,weatherlink.com 1.10,2013-01-26 12:21:00,
2013-01-26 05:36:00,42.9,42.0,29.51,ENE,61,3.0,5.0,96,0.12,,,0.17,weatherlink.com 1.10,2013-01-26 12:36:00,
2013-01-26 05:51:00,42.8,42.0,29.51,East,84,1.0,9.0,97,0.16,,,0.24,weatherlink.com 1.10,2013-01-26 12:51:00,
2013-01-26 06:06:00,43.0,42.0,29.50,SE,140,1.0,9.0,97,0.19,,,0.29,weatherlink.com 1.10,2013-01-26 13:06:00,
2013-01-26 06:21:00,42.8,42.0,29.49,West,276,9.0,16.0,97,0.21,,,0.33,weatherlink.com 1.10,2013-01-26 13:21:00,
2013-01-26 06:36:00,42.2,41.0,29.49,ENE,68,8.0,18.0,97,0.21,,,0.38,weatherlink.com 1.10,2013-01-26 13:36:00,
2013-01-26 06:51:00,41.9,41.0,29.49,NW,322,10.0,18.0,97,0.19,,,0.43,weatherlink.com 1.10,2013-01-26 13:51:00,
2013-01-26 07:07:00,42.0,41.0,29.50,ENE,67,8.0,17.0,97,0.22,,,0.52,weatherlink.com 1.10,2013-01-26 14:07:00,
2013-01-26 07:22:00,41.6,41.0,29.50,WNW,291,5.0,19.0,97,0.28,,,0.62,weatherlink.com 1.10,2013-01-26 14:22:00,
2013-01-26 07:37:00,42.0,41.0,29.50,ENE,57,12.0,13.0,97,0.31,,,0.69,weatherlink.com 1.10,2013-01-26 14:37:00,
2013-01-26 07:52:00,41.9,41.0,29.50,WSW,257,3.0,10.0,97,0.32,,,0.75,weatherlink.com 1.10,2013-01-26 14:52:00,
2013-01-26 08:07:00,42.1,41.0,29.50,NE,56,4.0,10.0,97,0.27,,,0.80,weatherlink.com 1.10,2013-01-26 15:07:00,
2013-01-26 08:22:00,42.4,42.0,29.50,North,358,1.0,7.0,97,0.19,,,0.81,weatherlink.com 1.10,2013-01-26 15:22:00,
2013-01-26 08:37:00,42.6,42.0,29.50,SSW,203,6.0,10.0,97,0.14,,,0.84,weatherlink.com 1.10,2013-01-26 15:37:00,
2013-01-26 08:52:00,42.9,42.0,29.50,West,275,7.0,14.0,97,0.16,,,0.92,weatherlink.com 1.10,2013-01-26 15:52:00,
2013-01-26 09:07:00,42.9,42.0,29.50,NNE,15,3.0,13.0,97,0.14,,,0.94,weatherlink.com 1.10,2013-01-26 16:07:00,
2013-01-26 09:22:00,43.1,42.0,29.50,West,271,1.0,11.0,97,0.19,,,1.00,weatherlink.com 1.10,2013-01-26 16:22:00,
2013-01-26 09:37:00,43.1,42.0,29.50,North,353,4.0,9.0,97,0.17,,,1.01,weatherlink.com 1.10,2013-01-26 16:37:00,
2013-01-26 09:52:00,43.1,42.0,29.50,NE,46,2.0,7.0,97,0.09,,,1.01,weatherlink.com 1.10,2013-01-26 16:52:00,
2013-01-26 10:07:00,43.0,42.0,29.50,NNE,28,3.0,10.0,97,0.08,,,1.03,weatherlink.com 1.10,2013-01-26 17:07:00,
2013-01-26 10:22:00,43.1,43.0,29.51,NW,322,2.0,15.0,98,0.04,,,1.04,weatherlink.com 1.10,2013-01-26 17:22:00,
2013-01-26 10:37:00,43.1,43.0,29.51,SSW,212,8.0,14.0,98,0.07,,,1.08,weatherlink.com 1.10,2013-01-26 17:37:00,
2013-01-26 10:52:00,42.0,41.0,29.52,NW,321,3.0,13.0,97,0.29,,,1.30,weatherlink.com 1.10,2013-01-26 17:52:00,
2013-01-26 11:07:00,40.2,39.0,29.53,West,271,15.0,30.0,97,0.39,,,1.42,weatherlink.com 1.10,2013-01-26 18:07:00,
2013-01-26 11:22:00,40.1,40.0,29.50,WNW,287,25.0,31.0,98,0.44,,,0.01,weatherlink.com 1.10,2013-01-26 18:22:00,
2013-01-26 11:37:00,40.7,40.0,29.51,WSW,242,19.0,36.0,98,0.46,,,0.07,weatherlink.com 1.10,2013-01-26 18:37:00,
2013-01-26 11:52:00,40.1,40.0,29.50,WSW,239,10.0,48.0,98,0.25,,,0.09,weatherlink.com 1.10,2013-01-26 18:52:00,
2013-01-26 12:07:00,40.2,40.0,29.51,West,264,15.0,36.0,98,0.14,,,0.09,weatherlink.com 1.10,2013-01-26 19:07:00,
2013-01-26 12:22:00,40.2,40.0,29.51,SW,236,7.0,31.0,98,0.09,,,0.10,weatherlink.com 1.10,2013-01-26 19:22:00,
2013-01-26 12:37:00,39.9,39.0,29.51,WSW,250,14.0,32.0,98,0.03,,,0.10,weatherlink.com 1.10,2013-01-26 19:37:00,
2013-01-26 12:52:00,39.4,39.0,29.52,SSW,202,5.0,34.0,97,0.01,,,0.10,weatherlink.com 1.10,2013-01-26 19:52:00,
2013-01-26 13:07:00,39.2,39.0,29.51,WSW,250,26.0,37.0,98,0.01,,,0.10,weatherlink.com 1.10,2013-01-26 20:07:00,
2013-01-26 13:22:00,39.1,39.0,29.50,SSW,203,26.0,26.0,98,0.02,,,0.12,weatherlink.com 1.10,2013-01-26 20:22:00,
2013-01-26 13:37:00,39.0,39.0,29.50,SW,231,7.0,28.0,98,0.02,,,0.12,weatherlink.com 1.10,2013-01-26 20:37:00,
2013-01-26 13:52:00,39.0,39.0,29.48,SW,215,8.0,26.0,98,0.02,,,0.12,weatherlink.com 1.10,2013-01-26 20:52:00,
2013-01-26 14:07:00,38.9,38.0,29.50,ESE,104,7.0,28.0,98,0.02,,,0.12,weatherlink.com 1.10,2013-01-26 21:07:00,
2013-01-26 14:22:00,39.1,39.0,29.48,SW,236,18.0,29.0,98,0.00,,,0.12,weatherlink.com 1.10,2013-01-26 21:22:00,
2013-01-26 14:37:00,38.8,38.0,29.49,SSW,212,10.0,32.0,98,0.00,,,0.12,weatherlink.com 1.10,2013-01-26 21:37:00,
2013-01-26 14:52:00,38.7,38.0,29.50,SW,232,22.0,30.0,98,0.00,,,0.12,weatherlink.com 1.10,2013-01-26 21:52:00,
2013-01-26 15:07:00,38.9,38.0,29.50,NW,322,7.0,26.0,98,0.00,,,0.12,weatherlink.com 1.10,2013-01-26 22:07:00,
2013-01-26 15:22:00,39.1,39.0,29.50,NW,304,6.0,29.0,98,0.00,,,0.12,weatherlink.com 1.10,2013-01-26 22:22:00,
2013-01-26 15:37:00,39.0,39.0,29.51,SSW,195,10.0,26.0,98,0.00,,,0.12,weatherlink.com 1.10,2013-01-26 22:37:00,
2013-01-26 15:52:00,38.9,38.0,29.52,SW,225,6.0,26.0,98,0.00,,,0.12,weatherlink.com 1.10,2013-01-26 22:52:00,
2013-01-26 16:07:00,38.7,38.0,29.51,West,260,9.0,18.0,98,0.00,,,0.12,weatherlink.com 1.10,2013-01-26 23:07:00,
2013-01-26 16:22:00,38.8,38.0,29.52,West,280,6.0,21.0,98,0.00,,,0.12,weatherlink.com 1.10,2013-01-26 23:22:00,
2013-01-26 16:37:00,39.1,39.0,29.53,North,358,7.0,20.0,98,0.00,,,0.12,weatherlink.com 1.10,2013-01-26 23:37:00,
2013-01-26 16:52:00,39.0,39.0,29.53,South,184,6.0,22.0,98,0.00,,,0.12,weatherlink.com 1.10,2013-01-26 23:52:00,
2013-01-26 17:07:00,38.9,38.0,29.53,SW,218,6.0,13.0,98,0.00,,,0.12,weatherlink.com 1.10,2013-01-27 00:07:00,
2013-01-26 17:22:00,38.8,38.0,29.53,ESE,113,6.0,21.0,98,0.00,,,0.12,weatherlink.com 1.10,2013-01-27 00:22:00,
2013-01-26 17:37:00,38.7,38.0,29.54,NW,304,8.0,21.0,98,0.00,,,0.12,weatherlink.com 1.10,2013-01-27 00:37:00,
2013-01-26 17:53:00,38.6,38.0,29.55,SE,136,7.0,21.0,98,0.00,,,0.12,weatherlink.com 1.10,2013-01-27 00:53:00,
2013-01-26 18:08:00,38.6,38.0,29.55,South,183,14.0,27.0,98,0.00,,,0.12,weatherlink.com 1.10,2013-01-27 01:08:00,
2013-01-26 18:23:00,38.4,38.0,29.55,West,274,11.0,22.0,98,0.00,,,0.12,weatherlink.com 1.10,2013-01-27 01:23:00,
2013-01-26 18:38:00,38.5,38.0,29.56,West,267,11.0,24.0,98,0.00,,,0.12,weatherlink.com 1.10,2013-01-27 01:38:00,
2013-01-26 18:53:00,38.4,38.0,29.56,SW,218,3.0,22.0,97,0.00,,,0.12,weatherlink.com 1.10,2013-01-27 01:53:00,
2013-01-26 19:08:00,38.3,38.0,29.57,East,99,1.0,25.0,97,0.00,,,0.12,weatherlink.com 1.10,2013-01-27 02:08:00,
2013-01-26 19:23:00,38.2,38.0,29.57,SSW,200,10.0,16.0,97,0.00,,,0.12,weatherlink.com 1.10,2013-01-27 02:23:00,
2013-01-26 19:38:00,38.1,37.0,29.58,SE,142,7.0,17.0,97,0.00,,,0.12,weatherlink.com 1.10,2013-01-27 02:38:00,
2013-01-26 19:53:00,38.1,37.0,29.58,SW,229,8.0,24.0,96,0.00,,,0.12,weatherlink.com 1.10,2013-01-27 02:53:00,
2013-01-26 20:08:00,38.3,37.0,29.59,SW,233,13.0,18.0,95,0.00,,,0.12,weatherlink.com 1.10,2013-01-27 03:08:00,
2013-01-26 20:23:00,38.1,37.0,29.58,NW,326,4.0,20.0,95,0.00,,,0.12,weatherlink.com 1.10,2013-01-27 03:23:00,
2013-01-26 20:38:00,38.0,36.0,29.58,SW,226,18.0,24.0,93,0.00,,,0.12,weatherlink.com 1.10,2013-01-27 03:38:00,
2013-01-26 20:53:00,38.0,36.0,29.59,SSW,208,8.0,24.0,92,0.00,,,0.12,weatherlink.com 1.10,2013-01-27 03:53:00,
2013-01-26 21:08:00,37.9,36.0,29.59,WSW,256,10.0,26.0,92,0.00,,,0.12,weatherlink.com 1.10,2013-01-27 04:08:00,
2013-01-26 21:23:00,37.7,35.0,29.59,WSW,248,13.0,28.0,90,0.00,,,0.12,weatherlink.com 1.10,2013-01-27 04:23:00,
2013-01-26 21:38:00,37.5,35.0,29.59,SW,231,7.0,21.0,89,0.00,,,0.12,weatherlink.com 1.10,2013-01-27 04:38:00,
2013-01-26 21:53:00,37.3,35.0,29.61,West,273,14.0,25.0,90,0.00,,,0.12,weatherlink.com 1.10,2013-01-27 04:53:00,
2013-01-26 22:08:00,37.4,35.0,29.61,SW,226,18.0,23.0,91,0.00,,,0.12,weatherlink.com 1.10,2013-01-27 05:08:00,
2013-01-26 22:23:00,37.3,35.0,29.62,SW,225,22.0,22.0,92,0.00,,,0.12,weatherlink.com 1.10,2013-01-27 05:23:00,
2013-01-26 22:38:00,37.1,35.0,29.62,SW,224,16.0,21.0,92,0.00,,,0.12,weatherlink.com 1.10,2013-01-27 05:38:00,
2013-01-26 22:53:00,37.1,35.0,29.62,WNW,293,13.0,19.0,92,0.00,,,0.12,weatherlink.com 1.10,2013-01-27 05:53:00,
2013-01-26 23:08:00,37.0,35.0,29.62,WSW,242,7.0,17.0,93,0.00,,,0.12,weatherlink.com 1.10,2013-01-27 06:08:00,
2013-01-26 23:23:00,37.1,35.0,29.62,SW,224,7.0,17.0,92,0.00,,,0.12,weatherlink.com 1.10,2013-01-27 06:23:00,
2013-01-26 23:38:00,37.1,35.0,29.62,WNW,287,14.0,14.0,93,0.00,,,0.12,weatherlink.com 1.10,2013-01-27 06:38:00,
2013-01-26 23:53:00,36.9,35.0,29.62,SSW,206,5.0,13.0,93,0.00,,,0.12,weatherlink.com 1.10,2013-01-27 06:53:00,